EJU89TX EHAM-LFMN

Flight info

Callsign EJU89TX
Flight time N/A
Altitude 35000
Route EDUPO Z739 MISGO DCT ASBON DCT TUSUK DCT ULNOK L607 ABUKA/N0458F340 DCT KRH DCT NATOR/N0456F350 DCT TRA DCT RIPUS DCT GERSA DCT SOSON DCT ODINA DCT ENOBA/N0403F190 Z185 BORDI
Aircraft A320/M-SDE3FGHIRWY/LB1

Departure

Time 2026-04-18 11:56
Airport Amsterdam Airport Schiphol (EHAM)

Arrival

Time N/A
Airport Nice-Côte d'Azur Airport (LFMN)
Time Latitude Longitude Altitude Speed Heading
2026-04-18 11:30 52.31024 4.75465 -1 ft 0 kts 148°
2026-04-18 11:43 52.31027 4.75462 -1 ft 2 kts 149°
2026-04-18 11:43 52.31043 4.75447 -1 ft 3 kts 151°
2026-04-18 11:43 52.31059 4.75431 -1 ft 3 kts 116°
2026-04-18 11:43 52.31062 4.75409 -1 ft 3 kts 76°
2026-04-18 11:44 52.31059 4.75394 -1 ft 0 kts 69°
2026-04-18 11:46 52.31076 4.75441 -1 ft 7 kts 57°
2026-04-18 11:46 52.31108 4.75493 -1 ft 6 kts 33°
2026-04-18 11:46 52.31152 4.75498 -1 ft 8 kts 354°
2026-04-18 11:47 52.31228 4.75489 -1 ft 13 kts 356°
2026-04-18 11:47 52.31326 4.75479 -1 ft 15 kts 356°
2026-04-18 11:47 52.31425 4.75516 -1 ft 16 kts 57°
2026-04-18 11:47 52.31435 4.75686 -1 ft 14 kts 87°
2026-04-18 11:48 52.31439 4.75833 -1 ft 12 kts 87°
2026-04-18 11:48 52.31443 4.75964 -1 ft 11 kts 86°
2026-04-18 11:48 52.31448 4.76080 -1 ft 9 kts 86°
2026-04-18 11:48 52.31452 4.76173 -1 ft 7 kts 86°
2026-04-18 11:49 52.31457 4.76274 -1 ft 14 kts 83°
2026-04-18 11:49 52.31464 4.76453 -1 ft 15 kts 86°
2026-04-18 11:49 52.31469 4.76612 -1 ft 13 kts 87°
2026-04-18 11:49 52.31473 4.76739 -1 ft 10 kts 87°
2026-04-18 11:50 52.31476 4.76850 -1 ft 13 kts 87°
2026-04-18 11:50 52.31483 4.77051 -1 ft 22 kts 86°
2026-04-18 11:50 52.31419 4.77276 -1 ft 21 kts 128°
2026-04-18 11:50 52.31333 4.77438 -1 ft 17 kts 131°
2026-04-18 11:51 52.31242 4.77506 -1 ft 13 kts 179°
2026-04-18 11:51 52.31160 4.77499 -1 ft 11 kts 184°
2026-04-18 11:51 52.31095 4.77492 -1 ft 8 kts 184°
2026-04-18 11:51 52.31043 4.77486 -1 ft 11 kts 183°
2026-04-18 11:52 52.30934 4.77476 -1 ft 20 kts 183°
2026-04-18 11:52 52.30813 4.77465 -1 ft 13 kts 184°
2026-04-18 11:52 52.30741 4.77459 -1 ft 7 kts 182°
2026-04-18 11:52 52.30718 4.77457 -1 ft 0 kts 182°
2026-04-18 11:53 52.30717 4.77457 -1 ft 1 kts 182°
2026-04-18 11:53 52.30707 4.77457 -1 ft 2 kts 182°
2026-04-18 11:53 52.30686 4.77456 -1 ft 5 kts 179°
2026-04-18 11:54 52.30621 4.77500 -1 ft 15 kts 151°
2026-04-18 11:54 52.30546 4.77563 -1 ft 5 kts 155°
2026-04-18 11:54 52.30535 4.77571 -1 ft 0 kts 155°
2026-04-18 11:54 52.30517 4.77585 -1 ft 8 kts 155°
2026-04-18 11:55 52.30476 4.77616 -1 ft 4 kts 155°
2026-04-18 11:55 52.30458 4.77630 -1 ft 5 kts 155°
2026-04-18 11:55 52.30410 4.77616 -1 ft 10 kts 211°
2026-04-18 11:55 52.30352 4.77475 -2 ft 31 kts 238°
2026-04-18 11:56 52.30106 4.76814 -1 ft 101 kts 237°
2026-04-18 11:56 52.29636 4.75585 21 ft 151 kts 243°
2026-04-18 11:56 52.29080 4.74049 579 ft 165 kts 240°
2026-04-18 11:56 52.28448 4.72442 1232 ft 165 kts 239°
2026-04-18 11:57 52.27778 4.70783 1692 ft 185 kts 239°
2026-04-18 11:57 52.27016 4.68940 2167 ft 208 kts 229°
2026-04-18 11:57 52.25738 4.67774 3093 ft 220 kts 190°
2026-04-18 11:57 52.24207 4.68199 4188 ft 235 kts 155°
2026-04-18 11:58 52.22994 4.70069 5220 ft 251 kts 127°
2026-04-18 11:58 52.22383 4.71690 5877 ft 254 kts 124°
2026-04-18 11:58 52.21522 4.74198 6906 ft 254 kts 122°
2026-04-18 11:58 52.20681 4.76808 7652 ft 265 kts 122°
2026-04-18 11:59 52.19799 4.79535 8236 ft 283 kts 122°
2026-04-18 11:59 52.18818 4.82428 8980 ft 294 kts 124°
2026-04-18 11:59 52.17885 4.85407 10070 ft 301 kts 112°
2026-04-18 11:59 52.17599 4.88854 10822 ft 318 kts 88°
2026-04-18 12:00 52.18074 4.92424 11555 ft 330 kts 72°
2026-04-18 12:00 52.18854 4.96104 11822 ft 356 kts 72°
2026-04-18 12:00 52.19646 5.00055 12073 ft 379 kts 73°
2026-04-18 12:00 52.20451 5.04268 12488 ft 395 kts 74°
2026-04-18 12:01 52.22053 5.12976 13930 ft 406 kts 74°
2026-04-18 12:01 52.22749 5.17442 14572 ft 409 kts 82°
2026-04-18 12:01 52.22941 5.22079 15223 ft 411 kts 94°
2026-04-18 12:02 52.22587 5.26703 15869 ft 411 kts 105°
2026-04-18 12:02 52.21690 5.31126 16494 ft 411 kts 117°
2026-04-18 12:02 52.20295 5.35178 17105 ft 410 kts 128°
2026-04-18 12:02 52.18668 5.38932 17723 ft 413 kts 129°
2026-04-18 12:03 52.16996 5.42770 18344 ft 417 kts 129°
2026-04-18 12:03 52.15311 5.46636 18889 ft 420 kts 129°
2026-04-18 12:03 52.13613 5.50527 19448 ft 424 kts 129°
2026-04-18 12:03 52.11899 5.54450 20005 ft 427 kts 129°
2026-04-18 12:04 52.10167 5.58405 20536 ft 431 kts 130°
2026-04-18 12:04 52.08417 5.62384 21056 ft 434 kts 130°
2026-04-18 12:04 52.06655 5.66378 21551 ft 437 kts 131°
2026-04-18 12:04 52.04727 5.70189 22025 ft 437 kts 136°
2026-04-18 12:05 52.02721 5.73923 22518 ft 440 kts 136°
2026-04-18 12:05 52.00706 5.77679 23015 ft 443 kts 136°
2026-04-18 12:05 51.98680 5.81458 23481 ft 446 kts 136°
2026-04-18 12:05 51.96637 5.85270 23909 ft 449 kts 137°
2026-04-18 12:06 51.94586 5.89102 24298 ft 451 kts 137°
2026-04-18 12:06 51.92521 5.92963 24685 ft 454 kts 137°
2026-04-18 12:06 51.90451 5.96832 25066 ft 456 kts 137°
2026-04-18 12:06 51.88366 6.00714 25440 ft 458 kts 137°
2026-04-18 12:07 51.86264 6.04611 25800 ft 460 kts 137°
2026-04-18 12:07 51.84151 6.08518 26163 ft 463 kts 137°
2026-04-18 12:07 51.82022 6.12442 26506 ft 465 kts 137°
2026-04-18 12:07 51.79880 6.16371 26829 ft 467 kts 137°
2026-04-18 12:08 51.77728 6.20308 27160 ft 469 kts 138°
2026-04-18 12:08 51.75557 6.24269 27493 ft 472 kts 138°
2026-04-18 12:08 51.73378 6.28239 27806 ft 474 kts 138°
2026-04-18 12:08 51.71190 6.32228 28127 ft 476 kts 138°
2026-04-18 12:09 51.68986 6.36236 28420 ft 478 kts 138°
2026-04-18 12:09 51.66774 6.40251 28807 ft 478 kts 138°
2026-04-18 12:09 51.64571 6.44251 29235 ft 477 kts 138°
2026-04-18 12:09 51.62368 6.48242 29683 ft 476 kts 138°
2026-04-18 12:10 51.60172 6.52220 30119 ft 475 kts 138°
2026-04-18 12:10 51.57979 6.56190 30515 ft 475 kts 138°
2026-04-18 12:10 51.55811 6.60104 30880 ft 474 kts 138°
2026-04-18 12:10 51.53592 6.64098 31248 ft 473 kts 138°
2026-04-18 12:11 51.51402 6.68032 31621 ft 472 kts 138°
2026-04-18 12:11 51.49241 6.71908 31992 ft 471 kts 138°
2026-04-18 12:11 51.47028 6.75868 32373 ft 470 kts 138°
2026-04-18 12:11 51.44874 6.79715 32740 ft 469 kts 138°
2026-04-18 12:12 51.42695 6.83605 33115 ft 468 kts 138°
2026-04-18 12:12 51.40400 6.87236 33478 ft 461 kts 146°
2026-04-18 12:12 51.37847 6.90258 33843 ft 452 kts 154°
2026-04-18 12:12 51.35183 6.92928 34201 ft 451 kts 154°
2026-04-18 12:13 51.32530 6.95586 34510 ft 451 kts 154°
2026-04-18 12:13 51.29862 6.98258 34809 ft 451 kts 154°
2026-04-18 12:13 51.27207 7.00923 35085 ft 452 kts 154°
2026-04-18 12:14 51.21875 7.06286 35197 ft 453 kts 154°
2026-04-18 12:14 51.16533 7.11640 35198 ft 453 kts 154°
2026-04-18 12:15 51.11180 7.16973 35197 ft 454 kts 154°
2026-04-18 12:15 51.05829 7.22285 35197 ft 453 kts 154°
2026-04-18 12:16 51.00468 7.27576 35194 ft 454 kts 154°
2026-04-18 12:16 50.95114 7.32863 35193 ft 454 kts 154°
2026-04-18 12:17 50.89743 7.38170 35196 ft 454 kts 154°
2026-04-18 12:17 50.84374 7.43462 35194 ft 454 kts 154°
2026-04-18 12:18 50.79004 7.48732 35197 ft 455 kts 154°
2026-04-18 12:18 50.73620 7.53993 35195 ft 455 kts 154°
2026-04-18 12:19 50.68260 7.59332 35193 ft 456 kts 152°
2026-04-18 12:19 50.62963 7.64877 35194 ft 457 kts 151°
2026-04-18 12:20 50.57669 7.70428 35187 ft 457 kts 152°
2026-04-18 12:20 50.52350 7.75922 35189 ft 457 kts 152°
2026-04-18 12:21 50.47025 7.81384 35186 ft 458 kts 152°
2026-04-18 12:21 50.41698 7.86830 35196 ft 458 kts 152°
2026-04-18 12:22 50.36353 7.92292 35184 ft 458 kts 152°
2026-04-18 12:22 50.31018 7.97731 35186 ft 458 kts 152°
2026-04-18 12:23 50.25668 8.03164 35166 ft 458 kts 152°
2026-04-18 12:23 50.20344 8.08555 35162 ft 459 kts 152°
2026-04-18 12:24 50.14982 8.13975 35158 ft 460 kts 152°
2026-04-18 12:24 50.09575 8.19270 35153 ft 459 kts 153°
2026-04-18 12:25 50.04073 8.24314 35154 ft 459 kts 154°
2026-04-18 12:25 49.98553 8.29315 35159 ft 460 kts 154°
2026-04-18 12:26 49.93037 8.34362 35171 ft 460 kts 154°
2026-04-18 12:26 49.87528 8.39432 35165 ft 460 kts 154°
2026-04-18 12:27 49.82402 8.45496 35163 ft 468 kts 140°
2026-04-18 12:27 49.77671 8.52415 35165 ft 469 kts 140°
2026-04-18 12:28 49.72618 8.58665 35165 ft 461 kts 154°
2026-04-18 12:28 49.66739 8.62270 35166 ft 451 kts 172°
2026-04-18 12:29 49.60576 8.64000 35167 ft 450 kts 174°
2026-04-18 12:29 49.54404 8.65713 35169 ft 451 kts 174°
2026-04-18 12:30 49.48227 8.67355 35169 ft 448 kts 178°
2026-04-18 12:30 49.42073 8.67018 35162 ft 441 kts 192°
2026-04-18 12:31 49.35982 8.65764 35158 ft 442 kts 191°
2026-04-18 12:31 49.29881 8.64536 35162 ft 442 kts 191°
2026-04-18 12:32 49.23762 8.63311 35162 ft 443 kts 191°
2026-04-18 12:32 49.17646 8.62089 35165 ft 443 kts 191°
2026-04-18 12:33 49.11532 8.60869 35169 ft 444 kts 191°
2026-04-18 12:33 49.05401 8.59642 35171 ft 444 kts 191°
2026-04-18 12:34 48.99276 8.58412 35171 ft 444 kts 192°
2026-04-18 12:34 48.93260 8.56723 35165 ft 442 kts 196°
2026-04-18 12:35 48.87263 8.54632 35165 ft 442 kts 197°